Hourly Data Report for September 15, 2017

All times are specified in Local Standard Time (LST). Add 1 hour to adjust for Daylight Saving Time where and when it is observed.

QIKIQTARJUAQ A
NUNAVUT

67°32'48.000" N
64°01'54.000" W
5.50 m
2400577
YVM

Download Data

Hourly Data (September 2017)
Hourly Data Report for September 15, 2017
Temp Definition
°C
Dew Point Temp Definition
°C
Rel Hum Definition
%
Wind Dir Definition
10's deg

Wind Spd Definition
km/h
Visibility Definition
km
Stn Press Definition
kPa
Hmdx Definition


Wind Chill Definition


Weather Definition


TIME
00:00 Legend Double Dagger 1.0 -0.7 89 36 41 8.1 100.33     Rain,Fog
01:00 Legend Double Dagger 1.3 -0.7 86 1 37 16.1 100.34     LegendNANA
02:00 Legend Double Dagger 1.1 -0.2 91 36 35 16.1 100.34     Rain
03:00 Legend Double Dagger 0.9 -0.4 91 36 35 11.3 100.36     Rain
04:00 Legend Double Dagger 0.8 -0.7 90 35 35 12.9 100.38     Rain
05:00 Legend Double Dagger 0.9 -1.3 85 35 26 16.1 100.41     LegendNANA
06:00 Legend Double Dagger 0.8 -1.3 86 35 18 16.1 100.42     LegendNANA
07:00 Legend Double Dagger 0.5 -0.7 92 35 30 12.9 100.44     Rain
08:00 Legend Double Dagger 0.9 -1.0 87 35 21 16.1 100.46     LegendNANA
09:00 Legend Double Dagger 1.1 -1.2 85 35 26 16.1 100.48     LegendNANA
10:00 Legend Double Dagger 1.0 -1.5 84 34 17 16.1 100.50     Rain
11:00 Legend Double Dagger 0.9 -1.0 87 36 24 16.1 100.50     LegendNANA
12:00 Legend Double Dagger 1.1 -0.9 87 36 18 16.1 100.54     LegendNANA
13:00 Legend Double Dagger 1.6 -1.3 81 34 28 16.1 100.56     LegendNANA
14:00 Legend Double Dagger 1.2 -0.6 88 1 24 16.1 100.60     LegendNANA
15:00 Legend Double Dagger 1.1 -0.9 87 36 30 16.1 100.63     Rain
16:00 Legend Double Dagger 1.3 -1.3 83 34 26 16.1 100.64     LegendNANA
17:00 Legend Double Dagger 1.2 -1.0 85 31 24 16.1 100.68     LegendNANA
18:00 Legend Double Dagger 0.7 -0.7 90 1 15 14.5 100.71     Rain
19:00 Legend Double Dagger 0.8 -0.8 89 36 13 14.5 100.71     Rain
20:00 Legend Double Dagger 1.1 -1.1 85 35 15 16.1 100.71     LegendNANA
21:00 Legend Double Dagger 1.1 -1.1 85 34 11 16.1 100.68     LegendNANA
22:00 Legend Double Dagger 0.9 -0.5 90 36 22 16.1 100.64     LegendNANA
23:00 Legend Double Dagger 1.0 -0.5 90 1 28 16.1 100.62     LegendNANA

Notes on Data Quality.

Legend

  • E = Estimated
  • M = Missing
  • NA = Not Available
  • ‡ = Partner data that is not subject to review by the National Climate Archives
Date modified: